Total_Precipitation_Accumulation
1.11 1.09 1.11 1.14 1.25 1.39 1.51 1.72 1.91 1.84 1.57 1.34 1.32 1.30 1.24 1.32 1.54 1.31 1.21 1.22 1.11 1.04 1.06 1.05 1.07 1.09 1.09 1.04 1.06 1.11 1.18 1.31 1.52 1.70 1.87 2.05 2.16 2.26
1.05 1.00 0.98 0.99 1.03 1.09 1.19 1.34 1.55 1.69 1.61 1.32 1.21 1.14 1.12 1.11 1.35 1.19 1.21 1.22 1.03 0.90 0.85 0.86 0.89 0.94 0.94 0.90 0.91 0.94 1.00 1.07 1.22 1.39 1.59 1.77 1.89 2.03
0.95 0.93 0.91 0.91 0.97 0.96 1.01 1.12 1.26 1.42 1.56 1.44 1.24 1.12 1.08 1.12 1.18 1.09 1.06 1.00 0.93 0.91 0.79 0.74 0.76 0.82 0.82 0.80 0.84 0.86 0.89 0.98 1.12 1.26 1.43 1.61 1.75 1.83
0.92 0.92 0.88 0.88 0.93 0.93 0.95 1.01 1.14 1.31 1.46 1.52 1.35 1.21 1.11 1.06 1.08 1.04 0.88 0.83 0.85 0.96 0.83 0.74 0.69 0.69 0.77 0.73 0.72 0.77 0.83 0.95 1.07 1.17 1.31 1.44 1.53 1.59
0.87 0.92 0.93 0.93 0.91 0.90 0.93 1.00 1.12 1.25 1.40 1.45 1.37 1.27 1.21 1.13 1.16 1.08 0.96 1.03 0.90 0.91 0.85 0.78 0.72 0.70 0.92 0.94 0.72 0.68 0.73 0.86 0.96 1.02 1.13 1.22 1.28 1.32
0.72 0.85 0.91 0.92 0.92 0.98 1.00 1.04 1.11 1.27 1.36 1.40 1.33 1.25 1.21 1.21 1.26 1.27 1.21 1.16 1.06 0.85 0.87 0.83 0.80 0.82 1.14 1.63 1.11 0.79 0.75 0.81 0.90 0.97 1.00 1.00 0.99 1.00
0.63 0.71 0.78 0.80 0.81 0.87 0.89 0.98 1.11 1.26 1.33 1.38 1.33 1.27 1.20 1.28 1.32 1.27 1.22 1.23 1.11 0.98 0.96 0.89 1.04 1.33 1.85 2.46 1.97 1.32 1.06 0.95 0.87 0.90 0.93 0.92 0.87 0.82
0.70 0.72 0.68 0.68 0.66 0.64 0.71 0.81 0.97 1.17 1.33 1.39 1.35 1.32 1.25 1.28 1.37 1.36 1.33 1.35 1.34 1.08 0.99 1.00 1.23 1.96 2.63 2.96 2.50 1.68 1.33 1.09 0.95 0.97 1.01 0.97 0.84 0.74
0.76 0.74 0.64 0.61 0.70 0.71 0.71 0.74 0.85 0.99 1.20 1.41 1.46 1.34 1.30 1.31 1.44 1.50 1.43 1.42 1.40 1.19 1.18 1.24 1.46 2.23 2.51 2.69 2.49 1.75 1.44 1.26 1.16 1.20 1.18 1.00 0.82 0.71
0.58 0.66 0.76 0.78 0.71 0.72 0.71 0.81 0.90 1.00 1.09 1.21 1.38 1.31 1.24 1.30 1.39 1.43 1.38 1.33 1.25 1.15 1.18 1.36 1.58 2.10 2.12 2.23 2.28 1.79 1.49 1.36 1.29 1.27 1.22 0.99 0.80 0.69
0.42 0.48 0.55 0.59 0.59 0.67 0.77 0.92 0.98 1.09 1.11 1.27 1.29 1.23 1.22 1.23 1.17 1.21 1.40 1.50 1.40 1.15 1.06 1.24 1.47 1.76 1.80 1.88 1.84 1.70 1.54 1.44 1.32 1.25 1.14 0.91 0.75 0.68
0.45 0.52 0.52 0.46 0.49 0.62 0.80 0.99 1.13 1.18 1.27 1.45 1.43 1.40 1.29 1.22 1.12 1.15 1.42 1.61 1.56 1.31 1.05 1.12 1.27 1.42 1.64 1.62 1.51 1.43 1.50 1.54 1.44 1.37 1.21 0.92 0.67 0.60
0.48 0.56 0.59 0.51 0.47 0.53 0.71 0.90 1.07 1.10 1.32 1.57 1.47 1.31 1.25 1.20 1.16 1.17 1.29 1.38 1.35 1.26 1.01 1.08 1.28 1.36 1.47 1.50 1.43 1.43 1.40 1.46 1.48 1.54 1.43 1.13 0.78 0.57
0.56 0.55 0.54 0.52 0.49 0.55 0.70 0.87 1.00 1.16 1.36 1.46 1.27 1.11 1.02 0.99 1.03 0.99 0.97 0.98 1.02 1.02 0.94 1.02 1.29 1.48 1.47 1.35 1.41 1.40 1.39 1.43 1.49 1.56 1.57 1.38 1.07 0.84
0.49 0.53 0.51 0.49 0.60 0.80 0.92 1.01 1.15 1.36 1.42 1.28 1.13 1.01 0.88 0.85 0.82 0.83 0.83 0.86 0.86 0.76 0.69 0.78 1.04 1.27 1.38 1.35 1.37 1.34 1.42 1.60 1.63 1.63 1.60 1.46 1.24 1.02
0.44 0.57 0.62 0.66 0.84 1.04 1.19 1.27 1.36 1.41 1.28 1.15 1.05 0.92 0.78 0.78 0.78 0.76 0.83 0.85 0.89 0.83 0.72 0.74 0.88 1.09 1.21 1.19 1.31 1.38 1.41 1.77 1.87 1.71 1.67 1.63 1.41 1.18
0.42 0.61 0.75 0.80 0.93 1.09 1.23 1.31 1.35 1.34 1.25 1.13 1.02 0.92 0.84 0.80 0.78 0.72 0.77 0.78 0.82 0.85 0.83 0.82 0.87 0.93 0.99 1.05 1.23 1.35 1.46 1.70 1.83 1.64 1.53 1.62 1.52 1.29
0.49 0.74 0.84 0.83 0.89 0.99 1.11 1.22 1.21 1.17 1.11 1.09 1.06 1.02 0.94 0.82 0.79 0.76 0.74 0.77 0.83 0.81 0.78 0.77 0.75 0.75 0.83 0.92 1.14 1.27 1.31 1.48 1.55 1.41 1.23 1.28 1.43 1.28
0.56 0.76 0.85 0.90 0.93 0.96 0.99 1.04 1.10 1.10 1.03 1.00 0.99 0.94 0.86 0.79 0.77 0.77 0.75 0.77 0.77 0.72 0.63 0.56 0.55 0.58 0.69 0.98 1.16 1.25 1.24 1.22 1.20 1.19 1.10 1.03 1.17 1.17
0.56 0.73 0.84 0.89 0.93 0.96 0.95 0.93 0.97 1.00 0.95 0.87 0.86 0.84 0.79 0.77 0.76 0.75 0.73 0.68 0.65 0.60 0.56 0.49 0.46 0.51 0.63 0.85 1.22 1.39 1.18 0.96 0.90 0.97 0.97 0.95 1.08 1.12
0.50 0.62 0.73 0.81 0.81 0.82 0.85 0.86 0.89 0.93 0.87 0.83 0.84 0.83 0.81 0.76 0.71 0.62 0.55 0.46 0.48 0.52 0.53 0.56 0.55 0.47 0.47 0.57 0.85 1.11 1.13 1.01 0.83 0.79 0.79 0.85 0.89 0.83
0.46 0.57 0.67 0.69 0.69 0.65 0.66 0.69 0.72 0.73 0.75 0.77 0.78 0.75 0.70 0.65 0.57 0.50 0.47 0.46 0.48 0.50 0.50 0.50 0.47 0.44 0.47 0.58 0.74 0.90 0.93 0.83 0.74 0.73 0.70 0.64 0.63 0.71
0.48 0.52 0.56 0.59 0.59 0.57 0.54 0.53 0.55 0.59 0.62 0.65 0.68 0.67 0.61 0.54 0.48 0.42 0.39 0.37 0.37 0.39 0.41 0.43 0.46 0.46 0.48 0.51 0.55 0.63 0.65 0.63 0.54 0.54 0.65 0.67 0.61 0.69